[[{"header":{"parameterUnit":"m.s-1","parameterCategory":1,"la1":30.2991,"la2":30.254,"lo1":-89.0895,"lo2":-89.0444,"dy":0.0017,"dx":0.0017,"nx":28,"ny":28,"refTime":"2023-08-09T03:00:00:Z","depth":0,"parameterNumber":2,"parameterNumberName":"U-component_of_WINDS"},"data":[0,0,0,0,0,0,0,0,0,0,0,0,0,0,0,0,0,0,0,0,0,0,0,0,0,0,0,0,0,0,0,0,0,0,0,0,0,0,0,0,0,0,0,0,0,0,0,0,0,0,0,0,0,0,0,0,0,0,2.0589,2.059,0,2.0665,2.0666,2.0667,2.061,2.0608,2.0605,2.0603,2.0686,2.0691,2.0695,0,0,0,0,0,0,0,0,0,0,0,0,0,2.0402,2.0406,2.0589,2.059,2.0591,2.0665,2.0666,2.0667,2.061,2.0607,2.0604,2.0602,2.0685,2.069,2.0696,0,0,0,0,0,0,0,0,0,0,0,0,0,2.0481,2.0407,2.0589,2.0572,2.0571,2.0665,2.0666,2.0667,2.0611,2.0607,2.0604,2.06,2.0683,2.069,2.0696,2.0813,0,0,2.0717,2.072,0,0,0,0,0,0,0,0,2.0477,2.0488,2.0573,2.0573,2.0572,2.0624,2.063,2.0716,2.0612,2.0596,2.0603,2.0598,2.0669,2.0677,2.0699,2.0817,2.082,2.0718,2.0722,2.0725,2.0727,0,0,0,0,0,0,0,2.0471,2.0484,2.0619,2.0574,2.0574,2.0562,2.0569,2.0646,2.0653,2.0597,2.0593,2.0603,2.0668,2.0693,2.0701,2.0822,2.0717,2.0724,2.0728,2.073,2.104,2.1044,0,0,0,0,0,0,2.0467,2.048,2.0617,2.0621,2.0514,2.0569,2.0576,2.0611,2.0652,2.0654,2.0606,2.06,2.0683,2.0693,2.0704,2.0842,2.0725,2.0731,2.0735,2.1036,2.1041,2.1045,0,0,0,0,0,0,2.0463,2.0479,2.0614,2.055,2.0566,2.0576,2.0615,2.0615,2.0639,2.0658,2.0659,2.0629,2.068,2.0694,2.0786,2.0844,2.0734,2.074,2.1031,2.1037,2.1043,2.1121,0,0,0,0,0,0,2.0458,2.0478,2.0521,2.0551,2.057,2.0693,2.0619,2.0619,2.065,2.0643,2.0681,2.0683,2.0679,2.0776,2.0793,2.0852,2.0746,2.1026,2.1034,2.1041,2.1113,2.1129,2.1143,0,0,0,0,0,2.0451,2.0541,2.0523,2.054,2.0623,2.0696,2.0707,2.0698,2.0655,2.0699,2.0712,2.0682,2.0836,2.0786,2.0804,2.0866,2.1022,2.1032,2.1041,2.1106,2.1126,2.1142,0,0,0,0,0,0,2.0518,2.0544,2.0525,2.0627,2.066,2.0686,2.0741,2.0719,2.0766,2.0757,2.0746,2.0755,2.0851,2.0869,2.0812,2.0982,2.0923,2.0936,2.0966,2.0985,2.0999,2.0992,2.0751,0,0,0,0,0,2.0545,2.06,2.0621,2.0709,2.0726,2.0731,2.0763,2.0753,2.0788,2.0802,2.0821,2.0857,2.0913,2.0951,2.1004,2.1117,2.1124,2.1169,2.1183,2.1195,2.1206,2.1268,2.1287,2.1076,2.1076,2.1076,0,0,2.06,2.0621,2.0657,2.0723,2.0747,2.0807,2.0743,2.0809,2.0853,2.0812,2.0899,2.0915,2.0955,2.1058,2.1104,2.1075,2.1267,2.1207,2.1217,2.1221,2.1279,2.1299,2.1317,2.1082,2.1081,2.108,0,0,2.073,2.0752,2.0827,2.0853,2.0891,2.0894,2.0912,2.0943,2.0952,2.1039,2.1009,2.1064,2.1161,2.1191,2.1219,2.1364,2.1338,2.1382,2.1458,2.1518,2.1534,2.1549,2.16,2.1618,2.1393,2.1394,2.1394,0,2.0794,2.0881,2.087,2.0937,2.0968,2.0933,2.101,2.1037,2.109,2.1113,2.1079,2.1201,2.1226,2.1335,2.137,2.1395,2.1416,2.1376,2.1533,2.1547,2.1561,2.1609,2.1628,2.1399,2.1398,2.1397,2.1397,0,2.0958,2.1019,2.1076,2.1126,2.1164,2.1236,2.1238,2.1278,2.1266,2.1274,2.1364,2.1393,2.1451,2.1477,2.1467,2.1586,2.1566,2.1534,2.1473,2.1586,2.1631,2.165,2.1406,2.1404,2.1402,2.1401,0,0,2.1129,2.1174,2.1195,2.1218,2.1258,2.1306,2.1379,2.1434,2.1468,2.1508,2.1568,2.1653,2.1623,2.1654,2.1648,2.1701,2.1813,2.1662,2.1662,2.1687,2.1946,2.1968,2.199,2.1798,2.1802,2.1805,2.1942,0,2.126,2.1382,2.1376,2.1492,2.1549,2.1519,2.1582,2.1615,2.1625,2.1676,2.1688,2.1747,2.1704,2.1723,2.1774,2.1789,2.1865,2.1779,2.1855,2.1858,2.1843,2.2014,2.2037,2.2165,2.196,2.1963,2.1965,0,2.1428,2.1472,2.1593,2.1625,2.1649,2.1706,2.1756,2.1806,2.1844,2.1848,2.1884,2.187,2.1945,2.1885,2.1989,2.1931,2.1963,2.1975,2.198,2.1984,2.1916,2.2021,2.2206,2.2224,2.1993,2.1991,2.1989,0,2.1538,2.1628,2.1712,2.1734,2.1774,2.1815,2.1834,2.1868,2.1902,2.1948,2.197,2.2026,2.2055,2.21,2.2101,2.2058,2.2207,2.2147,2.2212,2.2212,2.2242,2.224,2.2432,2.2267,2.2267,2.2266,2.2266,0,2.1684,2.1759,2.1762,2.1814,2.1898,2.1892,2.1976,2.1992,2.2023,2.2078,2.2057,2.211,2.211,2.2165,2.2168,2.2253,2.2268,2.2274,2.2273,2.2274,2.2273,2.2292,2.2282,2.2271,2.227,2.2269,2.2268,0,2.1819,2.1825,2.1914,2.1946,2.1957,2.2017,2.2045,2.2095,2.2104,2.2175,2.2191,2.2207,2.227,2.2277,2.2352,2.2353,2.2456,2.2448,2.2442,2.244,2.2504,2.2497,2.2714,2.2742,2.2561,2.2562,2.2564,0,2.191,2.1967,2.2005,2.204,2.2061,2.2118,2.2153,2.2151,2.2188,2.2237,2.2282,2.2343,2.2391,2.2495,2.2513,2.2571,2.2562,2.2634,2.257,2.2569,2.2561,2.2556,2.2561,2.2645,2.2647,2.2649,2.265,0,2.207,2.2071,2.212,2.2173,2.2215,2.2256,2.2294,2.2325,2.2328,2.2372,2.2436,2.2473,2.2549,2.2611,2.2668,2.269,2.2671,2.2671,2.2689,2.2689,2.2682,2.2685,2.2473,2.2665,2.2664,2.2662,2.2662,2.2661,2.2184,2.2234,2.2268,2.2325,2.2355,2.2392,2.244,2.2456,2.2509,2.2569,2.2566,2.2636,2.2675,2.2749,2.2776,2.2832,2.2808,2.2835,2.2841,2.2846,2.2852,2.2676,2.2843,2.2843,2.2842,2.2842,2.2842,0,2.2341,2.2363,2.2416,2.247,2.2516,2.2495,2.2537,2.2577,2.2638,2.2676,2.2724,2.2798,2.2858,2.2883,2.2942,2.2983,2.2976,2.2998,2.2994,2.2999,2.2871,2.2848,2.3003,2.3003,2.3003,2.3003,2.3003,2.3003,2.2428,2.251,2.2515,2.2613,2.2634,2.2702,2.2728,2.2763,2.2792,2.2875,2.2925,2.294,2.2973,2.3035,2.309,2.3095,2.3117,2.3143,2.3145,2.3024,2.3008,2.2992,2.2971,2.3149,2.3149,2.3268,2.3269,2.327]},{"header":{"parameterUnit":"m.s-1","parameterCategory":1,"la1":30.2991,"la2":30.254,"lo1":-89.0895,"lo2":-89.0444,"dy":0.0017,"dx":0.0017,"nx":28,"ny":28,"refTime":"2023-08-09T03:00:00:Z","depth":0,"parameterNumber":3,"parameterNumberName":"V-component_of_WINDS"},"data":[0,0,0,0,0,0,0,0,0,0,0,0,0,0,0,0,0,0,0,0,0,0,0,0,0,0,0,0,0,0,0,0,0,0,0,0,0,0,0,0,0,0,0,0,0,0,0,0,0,0,0,0,0,0,0,0,0,0,3.0102,3.0104,0,3.0211,3.0212,3.0213,3.0166,3.0163,3.0161,3.0158,3.0267,3.0272,3.0277,0,0,0,0,0,0,0,0,0,0,0,0,0,2.9848,2.9852,3.0102,3.0104,3.0105,3.0211,3.0212,3.0214,3.0166,3.0163,3.016,3.0157,3.0265,3.0271,3.0278,0,0,0,0,0,0,0,0,0,0,0,0,0,2.9957,2.9854,3.0102,3.0094,3.0095,3.0211,3.0212,3.0214,3.0167,3.0163,3.0159,3.0155,3.0263,3.0271,3.0279,3.0408,0,0,3.0303,3.0307,0,0,0,0,0,0,0,0,2.9951,2.9967,3.0094,3.0095,3.0096,3.0171,3.0162,3.0279,3.0168,3.014,3.0158,3.0153,3.0238,3.0248,3.0277,3.0413,3.0418,3.0304,3.0309,3.0312,3.0314,0,0,0,0,0,0,0,2.9944,2.9962,3.0145,3.0096,3.0097,3.0083,3.0094,3.0184,3.021,3.0142,3.0139,3.0152,3.0237,3.0269,3.0279,3.0419,3.0304,3.0311,3.0316,3.0319,3.0659,3.0664,0,0,0,0,0,0,2.9937,2.9956,3.0142,3.0148,3.0012,3.0091,3.0104,3.0151,3.0209,3.0214,3.0155,3.015,3.0257,3.027,3.0283,3.0433,3.0312,3.032,3.0324,3.0655,3.066,3.0665,0,0,0,0,0,0,2.9931,2.9954,3.0137,3.0051,3.0074,3.01,3.0153,3.0155,3.0187,3.0219,3.0223,3.0183,3.0255,3.0271,3.0376,3.0436,3.0323,3.0331,3.065,3.0657,3.0663,3.0738,0,0,0,0,0,0,2.9924,2.9952,3.0004,3.0053,3.0078,3.0231,3.0157,3.016,3.0201,3.0194,3.0246,3.0251,3.0253,3.0364,3.0384,3.0445,3.0337,3.0645,3.0653,3.0661,3.073,3.0746,3.076,0,0,0,0,0,2.9915,3.0021,3.0006,3.0029,3.0143,3.0235,3.0249,3.025,3.0206,3.0256,3.0276,3.0249,3.0427,3.0375,3.0397,3.0462,3.0641,3.0651,3.066,3.0724,3.0743,3.076,0,0,0,0,0,0,2.9979,3.0028,3.0012,3.0137,3.0182,3.0227,3.029,3.0271,3.0329,3.0321,3.0318,3.033,3.0437,3.046,3.0402,3.0586,3.0527,3.0541,3.0568,3.0586,3.0601,3.0592,3.0344,0,0,0,0,0,3.0008,3.0079,3.0117,3.0224,3.0247,3.0265,3.0305,3.0301,3.0347,3.0366,3.0394,3.0438,3.0503,3.0546,3.0609,3.0733,3.0741,3.0788,3.0803,3.0815,3.0827,3.0889,3.0909,3.0696,3.0696,3.0696,0,0,3.0067,3.0103,3.0148,3.0238,3.0272,3.0343,3.0281,3.0361,3.0413,3.0378,3.0477,3.0499,3.0548,3.0661,3.0713,3.0684,3.0887,3.0827,3.0837,3.0842,3.0901,3.0921,3.0939,3.0703,3.0701,3.07,0,0,3.0212,3.0248,3.0338,3.0373,3.0425,3.0435,3.0457,3.0504,3.0516,3.0616,3.0589,3.065,3.0764,3.0798,3.0831,3.0982,3.0958,3.1003,3.108,3.114,3.1157,3.1172,3.1222,3.124,3.1015,3.1015,3.1015,0,3.028,3.0388,3.0387,3.0467,3.0505,3.0476,3.0564,3.0598,3.0668,3.0693,3.066,3.0798,3.083,3.0948,3.0985,3.1014,3.1035,3.0997,3.1155,3.117,3.1183,3.1231,3.125,3.102,3.1019,3.1019,3.1018,0,3.0465,3.0541,3.0607,3.0674,3.0719,3.0804,3.0812,3.0858,3.0849,3.0862,3.0961,3.0997,3.1063,3.1091,3.1085,3.1207,3.1187,3.1155,3.1094,3.1208,3.1253,3.1271,3.1027,3.1025,3.1023,3.1022,0,0,3.0655,3.0717,3.0741,3.0769,3.0822,3.0879,3.096,3.1025,3.1062,3.111,3.1175,3.1269,3.1238,3.1274,3.127,3.1324,3.1436,3.1284,3.1285,3.1308,3.1568,3.159,3.1612,3.1421,3.1424,3.1427,3.1563,0,3.0801,3.0944,3.0942,3.1073,3.1139,3.111,3.118,3.1218,3.1231,3.1288,3.1301,3.1367,3.1323,3.1344,3.1396,3.1412,3.1488,3.1402,3.1478,3.1481,3.1464,3.1636,3.1661,3.1788,3.1581,3.1584,3.1586,0,3.0991,3.1043,3.118,3.1218,3.1246,3.1309,3.1365,3.1421,3.1462,3.1467,3.1506,3.1492,3.1571,3.1509,3.1614,3.1556,3.1586,3.1598,3.1603,3.1608,3.1539,3.1643,3.1829,3.1846,3.1614,3.1612,3.161,0,3.1109,3.1215,3.1309,3.1334,3.1383,3.1426,3.1448,3.1486,3.1523,3.1572,3.1595,3.1653,3.1683,3.1727,3.1727,3.1683,3.1832,3.1771,3.1835,3.1835,3.1867,3.1865,3.2057,3.1892,3.1891,3.1891,3.1891,0,3.127,3.1354,3.1362,3.142,3.1511,3.1508,3.1598,3.1616,3.1648,3.1706,3.1685,3.174,3.1739,3.1793,3.1794,3.1878,3.1894,3.1897,3.1896,3.1898,3.1897,3.1917,3.1907,3.1896,3.1895,3.1894,3.1893,0,3.1419,3.1428,3.1528,3.1564,3.1575,3.1641,3.1671,3.1724,3.1734,3.1807,3.1824,3.1839,3.1902,3.1907,3.198,3.198,3.2081,3.2072,3.2067,3.2064,3.2127,3.2119,3.2337,3.2363,3.2183,3.2185,3.2186,0,3.1519,3.1583,3.1625,3.1663,3.1687,3.1748,3.1785,3.1783,3.1822,3.1871,3.1917,3.1978,3.2026,3.2127,3.2142,3.2197,3.2186,3.2259,3.2195,3.2193,3.2183,3.2178,3.2182,3.2271,3.2273,3.2274,3.2276,0,3.1696,3.1696,3.1751,3.1806,3.185,3.1894,3.1935,3.1966,3.1968,3.2012,3.2076,3.2113,3.2186,3.2245,3.2297,3.2317,3.2295,3.2296,3.2312,3.2314,3.2307,3.2307,3.2098,3.229,3.2289,3.2288,3.2287,3.2286,3.1821,3.1874,3.191,3.1971,3.2001,3.2038,3.2088,3.2103,3.2156,3.2215,3.2211,3.228,3.2314,3.2382,3.2406,3.2458,3.2433,3.2459,3.2465,3.2471,3.2475,3.2301,3.2468,3.2468,3.2467,3.2467,3.2466,0,3.1992,3.2014,3.2069,3.2125,3.2172,3.2148,3.219,3.223,3.2291,3.2326,3.2373,3.2443,3.2499,3.2518,3.2571,3.2609,3.26,3.2623,3.2619,3.2623,3.2496,3.2475,3.2629,3.2629,3.2629,3.2629,3.2629,3.2629,3.2087,3.2173,3.2177,3.2277,3.2298,3.2365,3.2391,3.2423,3.245,3.253,3.2576,3.2589,3.2616,3.267,3.2719,3.2723,3.2742,3.2768,3.2767,3.2649,3.2632,3.2616,3.2596,3.2773,3.2773,3.2889,3.289,3.2891]}]]